This is the latest recevied weather packets stored in our database for station/object SP2FH-13. If no packets are shown the sender has not sent any weather packets the latest 10 day(s).
| Time | Temp. | Humidity | Pressure | Rain* | Wind** | Luminosity | Snow |
|---|---|---|---|---|---|---|---|
| 1778391395 | 10° C | 73% | 1007.1 hPa | - | - | 184 W/m² | - |
| 1778391093 | 9.44° C | 77% | 1007.1 hPa | - | - | 173 W/m² | - |
| 1778390792 | 8.89° C | 78% | 1007.2 hPa | - | - | 162 W/m² | - |
| 1778390492 | 8.33° C | 80% | 1007.3 hPa | - | - | 150 W/m² | - |
| 1778390191 | 7.78° C | 83% | 1007.3 hPa | - | - | 139 W/m² | - |
| 1778389890 | 7.78° C | 84% | 1007.3 hPa | - | - | 128 W/m² | - |
| 1778389589 | 7.78° C | 84% | 1007.3 hPa | - | - | 115 W/m² | - |
| 1778389288 | 7.22° C | 84% | 1007.3 hPa | - | - | 99 W/m² | - |
| 1778388987 | 7.22° C | 84% | 1007.4 hPa | - | - | 81 W/m² | - |
| 1778388685 | 6.67° C | 86% | 1007.4 hPa | - | - | 73 W/m² | - |
| 1778388384 | 7.22° C | 84% | 1007.4 hPa | - | - | 47 W/m² | - |
| 1778388083 | 7.22° C | 83% | 1007.5 hPa | - | - | 42 W/m² | - |
| 1778387782 | 6.67° C | 83% | 1007.6 hPa | - | - | 51 W/m² | - |
| 1778387480 | 6.67° C | 83% | 1007.7 hPa | - | - | 47 W/m² | - |
| 1778387178 | 6.11° C | 83% | 1007.7 hPa | - | - | 43 W/m² | - |
| 1778386876 | 5.56° C | 84% | 1007.7 hPa | - | - | 40 W/m² | - |
| 1778386575 | 5° C | 88% | 1007.7 hPa | - | - | 37 W/m² | - |
| 1778386273 | 4.44° C | 90% | 1007.8 hPa | - | - | 30 W/m² | - |
| 1778385972 | 5.56° C | 87% | 1007.7 hPa | - | - | 28 W/m² | - |
| 1778385671 | 5.56° C | 84% | 1007.7 hPa | - | - | 26 W/m² | - |
| 1778385370 | 5° C | 87% | 1007.7 hPa | - | - | 24 W/m² | - |
| 1778385069 | 4.44° C | 91% | 1007.6 hPa | - | - | 24 W/m² | - |
| 1778384767 | 3.89° C | 93% | 1007.7 hPa | - | - | 22 W/m² | - |
| 1778384467 | 3.89° C | 93% | 1007.7 hPa | - | - | 19 W/m² | - |
| 1778384165 | 3.33° C | 93% | 1007.6 hPa | - | - | 17 W/m² | - |
* Rain since midnight (hover to see other rain measurements)
** Current wind speed in m/s (hover to see current wind gust speed)